Date,TemperatureHighF,TemperatureAvgF,TemperatureLowF,DewpointHighF,DewpointAvgF,DewpointLowF,HumidityHigh,HumidityAvg,HumidityLow,PressureMaxIn,PressureMinIn,WindSpeedMaxMPH,WindSpeedAvgMPH,GustSpeedMaxMPH,PrecipitationSumIn
2013-11-1,82,66,51,60,48,39,81,57,24,29.49,29.26,0,0,0,0.00
2013-11-2,72,63,52,45,40,35,64,45,26,29.72,29.50,0,0,0,0.00
2013-11-3,70,58,45,52,42,37,74,56,34,29.64,29.45,0,0,0,0.00
2013-11-4,71,65,60,61,57,52,82,76,69,29.48,29.38,0,0,0,0.02
2013-11-5,78,72,66,68,64,60,82,78,68,29.44,29.32,0,0,0,0.02
2013-11-6,76,65,55,70,57,42,83,74,60,29.72,29.40,0,0,0,0.11
2013-11-7,63,54,47,42,38,34,67,55,37,29.86,29.72,0,0,0,0.00
2013-11-8,65,57,50,46,43,38,74,59,41,29.79,29.59,0,0,0,0.00
2013-11-9,70,62,55,59,53,46,83,74,64,29.61,29.53,0,0,0,0.13
2013-11-10,68,64,62,59,57,56,83,79,72,29.71,29.58,0,0,0,0.00
2013-11-11,75,64,57,58,55,52,83,72,54,29.69,29.57,0,0,0,0.00
2013-11-12,63,56,45,54,46,28,82,72,52,30.01,29.65,0,0,0,0.00
2013-11-13,56,44,36,32,28,25,67,52,36,30.03,29.80,0,0,0,0.00
2013-11-14,61,49,34,45,35,26,74,61,41,29.79,29.47,0,0,0,0.00
2013-11-15,76,63,51,59,53,46,82,71,55,29.46,29.30,0,0,0,0.00
2013-11-16,80,72,64,68,64,57,82,78,67,29.35,29.19,0,0,0,0.00
2013-11-17,85,76,68,71,67,62,82,75,58,29.38,29.22,0,0,0,0.00
2013-11-18,78,69,61,68,62,55,83,78,67,29.53,29.37,0,0,0,0.00
2013-11-19,71,64,56,61,52,45,81,66,52,29.55,29.42,0,0,0,0.00
2013-11-20,73,66,59,64,59,53,82,77,71,29.44,29.31,0,0,0,0.00
2013-11-21,79,73,70,72,67,63,83,81,78,29.48,29.36,0,0,0,0.03
2013-11-22,73,46,36,67,42,32,87,84,78,29.76,29.47,0,0,0,0.19
2013-11-23,41,39,36,37,34,32,86,84,80,29.83,29.74,0,0,0,0.00
2013-11-24,41,38,35,37,34,30,87,84,74,29.85,29.70,0,0,0,0.34
2013-11-25,42,39,35,37,35,30,86,84,80,29.72,29.46,0,0,0,0.39
2013-11-26,50,42,38,37,34,29,84,71,55,29.77,29.52,0,0,0,0.01
2013-11-27,50,41,35,30,26,21,72,56,33,29.88,29.74,0,0,0,0.00
2013-11-28,55,42,33,34,29,26,79,62,38,29.84,29.73,0,0,0,0.00
2013-11-29,62,50,35,51,42,27,85,75,67,29.89,29.74,0,0,0,0.00
2013-11-30,69,59,51,58,52,44,81,76,69,29.79,29.60,0,0,0,0.00